User: anonymous   Login
Location: Unspecified
(0.0000°N, 0.0000°E)
Time: 19:33:07
(UTC+00:00)
Language:

JUGNU - Orbit

View from above orbital plane
View from above orbital plane
View from above satellite
View from above satellite

Ground track
Ground track

The orbit data is extracted from the following two-line orbital elements,

1 37839U 11058B   20099.37391240 +.00000310 +00000-0 +23381-4 0  9999
2 37839 019.9623 347.7558 0018816 335.8488 185.1615 14.12676501438863
Epoch (UTC): 08 April 2020 08:58:26
Eccentricity: 0.0018816
inclination: 19.9623°
perigee height: 836 km
apogee height: 864 km
right ascension of ascending node: 347.7558°
argument of perigee: 335.8488°
revolutions per day: 14.12676501
mean anomaly at epoch: 185.1615°
orbit number at epoch: 43886

The dashed part of the orbit path shows where the satellite is in the earth's shadow,  

DLR